Home > Weather > Minden > Past weeks

Flag for Germany Weather for the Past 2 Weeks in Minden, North Rhine-Westphalia, Germany

Now
46 °F

Cool.


Feels Like: 45 °F
Forecast: 42 / 63 °F
Wind: 3 mph from West

Location: Bueckeburg

Current Time: May 4, 2016 at 11:11:04 AM

Latest Report: May 4, 2016 at 9:20 AM


Visibility: N/A

Pressure: 30.42 "Hg

Humidity: 82%

Dew Point: 41 °F

Location of MindenLocation

Historic Weather in Minden — Graph

°F

Minden Temperature Yesterday

Maximum temperature yesterday: 57 °F (at 5:20 PM)
Minimum temperature yesterday: 43 °F (at 11:20 PM)
Average temperature yesterday: 52 °F

High & Low Weather Summary for the Past Weeks

 TemperatureHumidityPressure
High68 °F (May 2, 4:20 PM)100% (Apr 21, 7:20 AM)30.45 "Hg (Apr 21, 7:20 AM)
Low32 °F (Apr 21, 6:20 AM)35% (May 2, 5:20 PM)29.39 "Hg (Apr 26, 1:20 PM)
Average45 °F74%30.00 "Hg
* Reported Apr 19 9:20 AM — May 4 9:20 AM, Minden, Weather by CustomWeather, © 2016

Note: Actual official high and low records may vary slightly from our data, if they occured in-between our weather recording intervals... More about our weather records

Advertising

Minden Weather History for the Previous 24 Hours

Scroll right to see more
 ConditionsComfort  
Time TempWeatherWind HumidityBarometerVisibility
9:20 AM
Wed, May 4
46 °FCool.3 mph82%30.42 "HgN/A
8:20 AM43 °FQuite cool.2 mph93%30.39 "Hg6 mi
7:20 AM41 °FQuite cool.2 mph93%30.39 "Hg5 mi
6:20 AM36 °FChilly.2 mph93%30.39 "Hg5 mi
5:20 AM36 °FChilly.2 mph93%30.36 "Hg5 mi
4:20 AM36 °FChilly.5 mph93%30.36 "HgN/A
3:20 AM36 °FChilly.2 mph93%30.33 "HgN/A
2:20 AM37 °FChilly.3 mph93%30.33 "HgN/A
1:20 AM37 °FChilly.3 mph93%30.33 "HgN/A
12:20 AM39 °FChilly.2 mph87%30.33 "HgN/A
11:20 PM
Tue, May 3
43 °FQuite cool.2 mph81%30.30 "HgN/A
10:20 PM46 °FCool.6 mph71%30.30 "HgN/A
9:20 PM50 °FCool.7 mph58%30.27 "HgN/A
8:20 PM52 °FCool.9 mph50%30.24 "HgN/A
7:20 PM55 °FPassing clouds.13 mph44%30.21 "HgN/A
7:00 PM55 °FPassing clouds.13 mph47%30.18 "HgN/A
6:20 PM55 °FPassing clouds.9 mph59%30.18 "HgN/A
5:20 PM57 °FScattered clouds.13 mph48%30.18 "HgN/A
4:20 PM54 °FScattered clouds.12 mph54%30.18 "HgN/A
3:20 PM55 °FPartly sunny.7 mph63%30.15 "HgN/A
2:20 PM54 °FSprinkles. Broken clouds.18 mph58%30.15 "HgN/A
1:20 PM52 °FBroken clouds.7 mph77%30.15 "HgN/A
12:20 PM52 °FBroken clouds.10 mph82%30.12 "HgN/A
11:20 AM48 °FPartly sunny.6 mph94%30.12 "HgN/A
Weather by CustomWeather, © 2016

See weather overviewHow to use our weather pages